Regional Weather Roundup
Issued by NWS

Home | Current Version | Previous Version | Text Only | Print | Product List | Glossary On
Versions: 1 2 3 4 5 6 7 8 9 10 11 12 13 14 15 16 17 18 19 20 21 22 23 24 25 26 27 28 29 30 31 32 33 34 35 36 37 38 39 40 41 42 43 44 45 46 47 48 49 50
000
ASUS46 KSEW 040210
RWRWA

WASHINGTON REGIONAL WEATHER ROUNDUP
NATIONAL WEATHER SERVICE SEATTLE WA
700 PM PDT SUN MAY 03 2015

NOTE:"FAIR" INDICATES FEW OR NO CLOUDS BELOW 12,000 FEET WITH NO
SIGNIFICANT WEATHER AND/OR OBSTRUCTIONS TO VISIBILITY.

WAZ505-507>509-040300-
SEATTLE, TACOMA, EVERETT, AND VICINITY

CITY           SKY/WX    TMP DP  RH WIND       PRES   REMARKS
EVERETT        SUNNY     62  40  44 N5        29.91F
BOEING FIELD   SUNNY     67  35  30 W7        29.88F
RENTON         SUNNY     66  41  40 NW6       29.88F
SEATAC AIRPORT SUNNY     67  30  25 N5        29.90F
JBLM-MCCHORD   SUNNY     67  38  34 N3        29.88F
PUYALLUP       FAIR      66  30  26 CALM      29.89F
BREMERTON      SUNNY     64  37  36 NE9       29.91F
JBLM-FT LEWIS  SUNNY     69  36  30 NE7       29.88F
TACOMA NARROWS SUNNY     65  33  30 NE7       29.90F
$$

WAZ001-503-506-510-514-515-040300-
NORTH INTERIOR

CITY           SKY/WX    TMP DP  RH WIND       PRES   REMARKS
BELLINGHAM     SUNNY     63  40  42 W3        29.89F
FRIDAY HARBOR  SUNNY     59  38  45 SW6       29.91F
EASTSOUND      SUNNY     57  45  62 CALM      29.88F
PORT ANGELES   SUNNY     56  44  64 NW6       29.92S
NAS WHIDBEY    SUNNY     58  44  60 W6        29.90F
ARLINGTON      SUNNY     63  43  48 NW7       29.90F
BURLINGTON     SUNNY     61  41  48 W3        29.89F
$$

WAZ020-022-039-040-504-511-512-040300-
SOUTHWEST INTERIOR

CITY           SKY/WX    TMP DP  RH WIND       PRES   REMARKS
SHELTON        SUNNY     66  42  41 W10       29.86S
OLYMPIA        SUNNY     68  36  30 E8        29.87F
CHEHALIS       FAIR      70  41  35 N5        29.87S HAZE
KELSO          SUNNY     68  45  42 NW9G16    29.90S
VANCOUVER      SUNNY     73  35  25 N6        29.83S
SCAPPOOSE, OR  SUNNY     72  34  24 N9        29.83S
PORTLAND, OR   SUNNY     72  40  31 NW12      29.83F
$$

WAZ021-516-517-040300-
WASHINGTON COAST

CITY           SKY/WX    TMP DP  RH WIND       PRES   REMARKS
FORKS          SUNNY     55  48  77 W10       29.93S
HOQUIAM        SUNNY     58  47  66 W9        29.92S
ASTORIA, OR    SUNNY     57  47  69 NW13      29.91F
$$

WAZ019-023-024-040-518-519-040300-
CASCADE MOUNTAINS AND COLUMBIA GORGE

CITY           SKY/WX    TMP DP  RH WIND       PRES   REMARKS
TROUTDALE, OR  SUNNY     73  40  30 W5        29.81F
THE DALLES, OR SUNNY     78  30  17 E5        29.80F
$$

WAZ026-027-041>044-520-521-040300-
EAST SLOPES

CITY           SKY/WX    TMP DP  RH WIND       PRES   REMARKS
OMAK           SUNNY     70  30  22 S3        29.85F
WENATCHEE      SUNNY     72  26  18 SE8       29.84F
ELLENSBURG     SUNNY     72  33  24 E7        29.84F
YAKIMA         MOSUNNY   75  29  18 SE5       29.83F
$$

WAZ028-034-035-040300-
COLUMBIA BASIN

CITY           SKY/WX    TMP DP  RH WIND       PRES   REMARKS
EPHRATA        SUNNY     71  25  17 S5        29.85F
MOSES LAKE     SUNNY     72  25  17 SW3       29.86F
PASCO          SUNNY     73  42  32 N6        29.83F
HERMISTON, OR  SUNNY     75  25  15 N3        29.82F
$$

WAZ036>038-040300-
NORTHEAST WASHINGTON

CITY           SKY/WX    TMP DP  RH WIND       PRES   REMARKS
SPOKANE GEIGER CLEAR     67  21  17 N7        29.89S
SPOKANE FELTS  CLEAR     67  26  21 NW3       29.88F
FAIRCHILD AFB  CLEAR     65  23  20 VRB3      29.89F
COEURDALENE,ID CLEAR     66  25  20 N3        29.89S
DEER PARK      CLEAR     66  25  21 W5        29.89F
$$

WAZ029>033-040300-
SOUTHEAST WASHINGTON

CITY           SKY/WX    TMP DP  RH WIND       PRES   REMARKS
PULLMAN        CLEAR     65  24  21 NW7       29.89F
LEWISTON, ID   CLEAR     72  28  19 W7        29.83S
WALLA WALLA    CLEAR     74  32  21 N6        29.83F
PENDLETON, OR  CLEAR     69  32  25 NE5       29.84F
$$



USA.gov is the U.S. government's official web portal to all federal, state and local government web resources and services.